When you browse on this site, cookies collect data to enhance your experience and personalize the content and advertising you see.
Visit our Privacy Policy to learn more. By continuing to use the site, you agree to this use of cookies and data.
  • In Czech Republic
  • List of Countries
  • For 7 days
  • Water Temperature
  • Weather Map
  • Weather Widgets
  • user-avatar
    Login

    Hourly Weather Mayrhofen

    Today, 13 December, Friday

    Time Temperature Precipitation Wind Pressure Humidity
    00:00 -12°C° 0 mm 3 mps 600 mmHg 85%
    01:00 -12°C° 0 mm 3 mps 599 mmHg 85%
    02:00 -12°C° 0 mm 3 mps 598 mmHg 85%
    03:00 -12°C° 0 mm 3 mps 598 mmHg 85%
    04:00 -12°C° 0 mm 4 mps 597 mmHg 85%
    05:00 -12°C° 0 mm 4 mps 596 mmHg 85%
    06:00 -12°C° 0 mm 4 mps 596 mmHg 85%
    07:00 -12°C° 0 mm 4 mps 595 mmHg 86%
    08:00 -12°C° 0.1 mm 4 mps 595 mmHg 84%
    09:00 -11°C° 0.1 mm 4 mps 594 mmHg 83%
    10:00 -10°C° 0.1 mm 4 mps 594 mmHg 82%
    11:00 -10°C° 0.3 mm 4 mps 594 mmHg 84%
    12:00 -8°C° 0.3 mm 3 mps 594 mmHg 86%
    13:00 -7°C° 0.3 mm 2 mps 594 mmHg 88%
    14:00 -7°C° 0.5 mm 2 mps 594 mmHg 89%
    15:00 -6°C° 0.5 mm 1 mps 594 mmHg 91%
    16:00 -6°C° 0.5 mm 1 mps 594 mmHg 93%
    17:00 -6°C° 0.1 mm 1 mps 595 mmHg 90%
    18:00 -8°C° 0.1 mm 2 mps 595 mmHg 88%
    19:00 -8°C° 0.1 mm 2 mps 595 mmHg 85%
    20:00 -9°C° 0 mm 2 mps 596 mmHg 84%
    21:00 -9°C° 0 mm 2 mps 596 mmHg 82%
    22:00 -9°C° 0 mm 2 mps 597 mmHg 80%
    23:00 -10°C° 0 mm 2 mps 597 mmHg 79%

    Tomorrow, 14 December, Saturday

    Time Temperature Precipitation Wind Pressure Humidity
    00:00 -10°C° 0 mm 2 mps 598 mmHg 79%
    01:00 -10°C° 0 mm 2 mps 599 mmHg 78%
    02:00 -10°C° 0 mm 2 mps 599 mmHg 76%
    03:00 -10°C° 0 mm 2 mps 599 mmHg 74%
    04:00 -12°C° 0 mm 2 mps 600 mmHg 71%
    05:00 -10°C° 0 mm 2 mps 600 mmHg 68%
    06:00 -9°C° 0 mm 2 mps 601 mmHg 64%
    07:00 -8°C° 0 mm 2 mps 602 mmHg 60%
    08:00 -6°C° 0.1 mm 2 mps 603 mmHg 63%
    09:00 -5°C° 0.1 mm 2 mps 604 mmHg 66%
    10:00 -3°C° 0.1 mm 2 mps 605 mmHg 69%
    11:00 -2°C° 0 mm 2 mps 605 mmHg 71%
    12:00 +1°C° 0 mm 1 mps 606 mmHg 73%
    13:00 +2°C° 0 mm 1 mps 607 mmHg 74%
    14:00 +1°C° 0 mm 1 mps 607 mmHg 75%
    15:00 0°C° 0 mm 1 mps 607 mmHg 76%
    16:00 -1°C° 0 mm 1 mps 607 mmHg 76%
    17:00 -1°C° 0 mm 1 mps 608 mmHg 75%
    18:00 -2°C° 0 mm 1 mps 608 mmHg 74%
    19:00 -4°C° 0 mm 2 mps 608 mmHg 72%
    20:00 -4°C° 0 mm 2 mps 609 mmHg 70%
    21:00 -4°C° 0 mm 2 mps 609 mmHg 69%
    22:00 -4°C° 0 mm 2 mps 609 mmHg 67%
    23:00 -4°C° 0 mm 2 mps 609 mmHg 67%

    Day after tomorrow, 15 December, Sunday

    Time Temperature Precipitation Wind Pressure Humidity
    00:00 -4°C° 0 mm 2 mps 610 mmHg 66%
    01:00 -4°C° 0 mm 2 mps 610 mmHg 66%
    02:00 -4°C° 0 mm 2 mps 610 mmHg 66%
    03:00 -4°C° 0 mm 2 mps 610 mmHg 66%
    04:00 -5°C° 0 mm 2 mps 610 mmHg 66%
    05:00 -5°C° 0 mm 2 mps 610 mmHg 66%
    06:00 -5°C° 0 mm 2 mps 610 mmHg 67%
    07:00 -5°C° 0 mm 2 mps 610 mmHg 67%
    08:00 -4°C° 0 mm 2 mps 611 mmHg 68%
    09:00 -3°C° 0 mm 2 mps 612 mmHg 69%
    10:00 -2°C° 0 mm 2 mps 612 mmHg 70%
    11:00 -1°C° 0 mm 2 mps 613 mmHg 73%
    12:00 +1°C° 0 mm 2 mps 613 mmHg 75%
    13:00 +1°C° 0 mm 2 mps 613 mmHg 78%
    14:00 -1°C° 0 mm 2 mps 613 mmHg 80%
    15:00 -2°C° 0 mm 2 mps 612 mmHg 81%
    16:00 -1°C° 0 mm 1 mps 612 mmHg 83%
    17:00 -4°C° 0 mm 2 mps 612 mmHg 82%
    18:00 -5°C° 0 mm 2 mps 613 mmHg 81%
    19:00 -5°C° 0 mm 2 mps 613 mmHg 80%
    20:00 -5°C° 0 mm 2 mps 613 mmHg 82%
    21:00 -6°C° 0 mm 2 mps 613 mmHg 83%
    22:00 -7°C° 0 mm 3 mps 614 mmHg 84%
    23:00 -7°C° 0 mm 3 mps 614 mmHg 85%

    16 December, Monday

    Time Temperature Precipitation Wind Pressure Humidity
    00:00 -7°C° 0 mm 3 mps 614 mmHg 87%
    01:00 -7°C° 0 mm 3 mps 614 mmHg 88%
    02:00 -6°C° 0 mm 3 mps 614 mmHg 88%
    03:00 -6°C° 0 mm 3 mps 614 mmHg 89%
    04:00 -6°C° 0 mm 3 mps 614 mmHg 90%
    05:00 -6°C° 0 mm 3 mps 614 mmHg 90%
    06:00 -5°C° 0 mm 4 mps 614 mmHg 90%
    07:00 -5°C° 0 mm 4 mps 614 mmHg 90%
    08:00 -5°C° 0 mm 4 mps 614 mmHg 89%
    09:00 -4°C° 0 mm 4 mps 615 mmHg 88%
    10:00 -3°C° 0 mm 4 mps 615 mmHg 87%
    11:00 -3°C° 0 mm 4 mps 615 mmHg 87%
    12:00 -2°C° 0 mm 4 mps 615 mmHg 87%
    13:00 -1°C° 0 mm 4 mps 615 mmHg 87%
    14:00 -2°C° 0 mm 4 mps 614 mmHg 88%
    15:00 -2°C° 0 mm 4 mps 614 mmHg 88%
    16:00 -2°C° 0 mm 4 mps 614 mmHg 89%
    17:00 -2°C° 0 mm 4 mps 614 mmHg 90%
    18:00 -2°C° 0 mm 4 mps 614 mmHg 90%
    19:00 -2°C° 0 mm 4 mps 614 mmHg 90%
    20:00 -2°C° 0 mm 4 mps 614 mmHg 90%
    21:00 -2°C° 0 mm 4 mps 614 mmHg 90%
    22:00 -2°C° 0 mm 4 mps 614 mmHg 90%
    23:00 -2°C° 0 mm 4 mps 614 mmHg 90%

    17 December, Tuesday

    Time Temperature Precipitation Wind Pressure Humidity
    00:00 -2°C° 0 mm 4 mps 614 mmHg 90%
    01:00 -2°C° 0 mm 4 mps 614 mmHg 90%
    02:00 -2°C° 0 mm 4 mps 614 mmHg 90%
    03:00 -2°C° 0 mm 4 mps 614 mmHg 89%
    04:00 -2°C° 0 mm 4 mps 614 mmHg 89%
    05:00 -2°C° 0 mm 4 mps 614 mmHg 89%
    06:00 -2°C° 0 mm 4 mps 614 mmHg 89%
    07:00 -2°C° 0 mm 4 mps 614 mmHg 89%
    08:00 -2°C° 0 mm 4 mps 614 mmHg 89%
    09:00 -1°C° 0 mm 4 mps 615 mmHg 89%
    10:00 -1°C° 0 mm 4 mps 615 mmHg 88%
    11:00 -1°C° 0 mm 4 mps 615 mmHg 89%
    12:00 -1°C° 0 mm 4 mps 615 mmHg 89%
    13:00 0°C° 0 mm 4 mps 615 mmHg 90%
    14:00 -1°C° 0.1 mm 4 mps 615 mmHg 90%
    15:00 0°C° 0.1 mm 3 mps 615 mmHg 91%
    16:00 0°C° 0.1 mm 3 mps 615 mmHg 91%
    17:00 0°C° 0.1 mm 3 mps 616 mmHg 92%
    18:00 0°C° 0.1 mm 3 mps 616 mmHg 92%
    19:00 -1°C° 0.1 mm 3 mps 616 mmHg 92%
    20:00 0°C° 0.1 mm 3 mps 616 mmHg 92%
    21:00 0°C° 0.1 mm 3 mps 617 mmHg 93%
    22:00 0°C° 0.1 mm 3 mps 617 mmHg 93%
    23:00 0°C° 0 mm 3 mps 617 mmHg 93%

    18 December, Wednesday

    Time Temperature Precipitation Wind Pressure Humidity
    00:00 0°C° 0 mm 3 mps 618 mmHg 93%
    01:00 0°C° 0 mm 3 mps 618 mmHg 92%
    02:00 0°C° 0 mm 3 mps 618 mmHg 92%
    03:00 +1°C° 0 mm 2 mps 618 mmHg 92%
    04:00 +1°C° 0 mm 2 mps 618 mmHg 92%
    05:00 -1°C° 0 mm 2 mps 618 mmHg 92%
    06:00 -1°C° 0 mm 2 mps 618 mmHg 92%
    07:00 -1°C° 0 mm 2 mps 619 mmHg 92%
    08:00 +1°C° 0 mm 2 mps 619 mmHg 92%
    09:00 +1°C° 0 mm 2 mps 619 mmHg 92%
    10:00 +2°C° 0 mm 2 mps 620 mmHg 92%
    11:00 +2°C° 0 mm 2 mps 619 mmHg 92%
    12:00 +2°C° 0 mm 2 mps 619 mmHg 93%
    13:00 +2°C° 0 mm 2 mps 619 mmHg 94%
    14:00 +2°C° 0 mm 2 mps 619 mmHg 94%
    15:00 +2°C° 0 mm 2 mps 619 mmHg 93%
    16:00 +1°C° 0 mm 2 mps 619 mmHg 93%
    17:00 +1°C° 0 mm 2 mps 619 mmHg 92%
    18:00 +1°C° 0 mm 2 mps 619 mmHg 90%
    19:00 -1°C° 0 mm 2 mps 618 mmHg 89%
    20:00 -1°C° 0 mm 2 mps 618 mmHg 86%
    21:00 -1°C° 0 mm 2 mps 618 mmHg 84%
    22:00 -1°C° 0 mm 2 mps 618 mmHg 81%
    23:00 -1°C° 0 mm 2 mps 618 mmHg 81%
    Show more